Regional Weather Roundup
Issued by NWS

Home | Current Version | Previous Version | Graphics & Text | Print | Product List | Glossary On
Versions: 1 2 3 4 5 6 7 8 9 10 11 12 13 14 15 16 17 18 19 20 21 22 23 24 25 26 27 28 29 30 31 32 33 34 35 36 37 38 39 40 41 42 43 44 45 46 47 48 49 50
240
ASUS44 KLIX 281210
RWRLA
LOUISIANA WEATHER ROUNDUP
NATIONAL WEATHER SERVICE NEW ORLEANS LA
600 AM CST WED JAN 28 2015

NOTE: "FAIR" INDICATES FEW OR NO CLOUDS BELOW 12,000 FEET WITH NO
      SIGNIFICANT WEATHER AND/OR OBSTRUCTIONS TO VISIBILITY.
      SKY/WX - SKY CONDITION AND SIGNIFICANT WEATHER.
      TMP - AIR TEMPERATURE.    DP   - DEWPOINT TEMPERATURE.
      RH  - RELATIVE HUMIDITY.  PRES - PRESSURE.
      HX  - HEAT INDEX.         WCI  - WIND CHILL INDEX.

*  THESE STATIONS ARE NOT NWS OR FAA STATIONS AND ARE NOT UNDER
   NWS QUALITY CONTROL.

LAZ040-048-061>063-065-066-069-281300-
SOUTHEAST LOUISIANA

CITY           SKY/WX    TMP DP  RH WIND       PRES   REMARKS
N.O. AUDUBON   NOT AVBL
N.O. INTL ARPT CLEAR     50  38  63 E6        30.23R
6HR MIN TEMP:  50; 6HR MAX TEMP:  54;

N.O. LAKEFRONT CLEAR     52  40  63 E13       30.23R
6HR MIN TEMP:  52; 6HR MAX TEMP:  57;

N.O. DOWNTOWN* FAIR      52  36  54 NE6       30.24R
6HR MIN TEMP:  52; 6HR MAX TEMP:  59;

SLIDELL        CLEAR     40  35  83 NE3       30.23R
6HR MIN TEMP:  39; 6HR MAX TEMP:  46;

BATON ROUGE    CLEAR     42  35  76 E6        30.22R
6HR MIN TEMP:  42; 6HR MAX TEMP:  48;

BOOTHVILLE     CLEAR     51  46  83 NE8       30.23R
6HR MIN TEMP:  51; 6HR MAX TEMP:  55;

BELLE CHASSE   CLEAR     41  36  82 CALM      30.23R
6HR MIN TEMP:  41; 6HR MAX TEMP:  54;

BOGALUSA*        N/A     35  33  90 CALM      30.26R
6HR MIN TEMP:  35; 6HR MAX TEMP:  42;

GALLIANO*      SUNNY     51  44  75 MISG      30.23R
6HR MIN TEMP:  50; 6HR MAX TEMP:  56;

NEW ROADS*     FAIR      47  36  65 E5        30.22R
6HR MIN TEMP:  41; 6HR MAX TEMP:  47;

GONZALES*      FAIR      44  38  79 CALM      30.22R
6HR MIN TEMP:  43; 6HR MAX TEMP:  56;

HAMMOND*       CLEAR     46  36  66 CALM      30.25R
HOUMA*         CLEAR     45  37  76 NE5       30.22R
PORT FOURCHON* SUNNY     54  46  76 NE9G15    30.24R

$$

LAZ041-044-053-054-281300-
SOUTHWEST LOUISIANA

CITY           SKY/WX    TMP DP  RH WIND       PRES   REMARKS
LAKE CHARLES   CLEAR     43  41  93 CALM      30.19R FOG
6HR MIN TEMP:  42; 6HR MAX TEMP:  47;

LAFAYETTE      CLEAR     50  37  61 CALM      30.21R
6HR MIN TEMP:  45; 6HR MAX TEMP:  51;

PATTERSON      CLEAR     46  37  71 E5        30.22R
6HR MIN TEMP:  45; 6HR MAX TEMP:  48;

SALT POINT       N/A     48  41  76 E3        30.20R
6HR MIN TEMP:  47; 6HR MAX TEMP:  52;

NEW IBERIA     CLEAR     47  37  68 E5        30.21R
6HR MIN TEMP:  45; 6HR MAX TEMP:  50;

CHENAULT AIRPK CLEAR     43  41  93 CALM      30.20

$$

LAZ027-028-281300-
CENTRAL LOUISIANA

CITY           SKY/WX    TMP DP  RH WIND       PRES   REMARKS
FORT POLK      CLEAR     41  40  93 E2        30.18R
6HR MIN TEMP:  41; 6HR MAX TEMP:  47;

ALEXANDRIA INT CLEAR     40  38  93 CALM      30.19R
6HR MIN TEMP:  39; 6HR MAX TEMP:  46;

ALEXANDRIA     CLEAR     37  34  89 CALM      30.21R
6HR MIN TEMP:  36; 6HR MAX TEMP:  42;


$$

LAZ001-002-281300-
NORTHWEST LOUISIANA

CITY           SKY/WX    TMP DP  RH WIND       PRES   REMARKS
SHREVEPORT     CLEAR     43  38  82 CALM      30.16R
6HR MIN TEMP:  40; 6HR MAX TEMP:  48;

BARKSDALE AFB  CLEAR     43  36  77 S7        30.17R
6HR MIN TEMP:  40; 6HR MAX TEMP:  46;

DTN SHREVEPORT CLEAR     41  34  76 CALM      30.17R
6HR MIN TEMP:  41; 6HR MAX TEMP:  49;


$$

LAZ014-016-281300-
NORTHEAST LOUISIANA

CITY           SKY/WX    TMP DP  RH WIND       PRES   REMARKS
MONROE         CLEAR     41  36  82 CALM      30.23R
6HR MIN TEMP:  37; 6HR MAX TEMP:  46;

TALLULAH       CLEAR     42  36  79 SE9       30.23R
6HR MIN TEMP:  36; 6HR MAX TEMP:  43;


$$




USA.gov is the U.S. government's official web portal to all federal, state and local government web resources and services.